Time,TemperatureF,DewpointF,PressureIn,WindDirection,WindDirectionDegrees,WindSpeedMPH,WindSpeedGustMPH,Humidity,HourlyPrecipIn,Conditions,Clouds,dailyrainin,SoftwareType,DateUTC
2013-02-05 00:00:00,30.9,12.0,30.20,SW,235,2.0,5.0,46,0.00,,,0.00,weatherlink.com 1.10,2013-02-05 07:00:00,
2013-02-05 00:15:00,31.9,14.0,30.20,SW,224,7.0,10.0,48,0.00,,,0.00,weatherlink.com 1.10,2013-02-05 07:15:00,
2013-02-05 00:30:00,32.1,14.0,30.20,SSW,212,0.0,7.0,47,0.00,,,0.00,weatherlink.com 1.10,2013-02-05 07:30:00,
2013-02-05 00:45:00,31.3,13.0,30.21,SSW,212,1.0,3.0,46,0.00,,,0.00,weatherlink.com 1.10,2013-02-05 07:45:00,
2013-02-05 01:00:00,28.7,14.0,30.21,SW,231,4.0,7.0,54,0.00,,,0.00,weatherlink.com 1.10,2013-02-05 08:00:00,
2013-02-05 01:15:00,28.2,14.0,30.21,SW,221,5.0,8.0,55,0.00,,,0.00,weatherlink.com 1.10,2013-02-05 08:15:00,
2013-02-05 01:30:00,30.0,13.0,30.21,West,270,6.0,9.0,50,0.00,,,0.00,weatherlink.com 1.10,2013-02-05 08:30:00,
2013-02-05 01:45:00,29.4,14.0,30.21,SW,216,2.0,5.0,52,0.00,,,0.00,weatherlink.com 1.10,2013-02-05 08:45:00,
2013-02-05 02:00:00,29.0,13.0,30.23,West,278,4.0,5.0,52,0.00,,,0.00,weatherlink.com 1.10,2013-02-05 09:00:00,
2013-02-05 02:15:00,26.9,13.0,30.23,SW,216,2.0,5.0,57,0.00,,,0.00,weatherlink.com 1.10,2013-02-05 09:15:00,
2013-02-05 02:30:00,25.7,13.0,30.23,West,261,2.0,3.0,60,0.00,,,0.00,weatherlink.com 1.10,2013-02-05 09:30:00,
2013-02-05 02:45:00,24.8,13.0,30.22,WSW,253,3.0,5.0,61,0.00,,,0.00,weatherlink.com 1.10,2013-02-05 09:45:00,
2013-02-05 03:00:00,25.3,13.0,30.22,WSW,253,4.0,4.0,60,0.00,,,0.00,weatherlink.com 1.10,2013-02-05 10:00:00,
2013-02-05 03:16:00,25.6,13.0,30.22,West,278,0.0,4.0,60,0.00,,,0.00,weatherlink.com 1.10,2013-02-05 10:16:00,
2013-02-05 03:30:00,25.4,14.0,30.21,West,278,1.0,3.0,61,0.00,,,0.00,weatherlink.com 1.10,2013-02-05 10:30:00,
2013-02-05 03:46:00,26.1,14.0,30.22,SW,232,4.0,6.0,60,0.00,,,0.00,weatherlink.com 1.10,2013-02-05 10:46:00,
2013-02-05 04:00:00,25.7,14.0,30.21,SW,227,1.0,2.0,61,0.00,,,0.00,weatherlink.com 1.10,2013-02-05 11:00:00,
2013-02-05 04:15:00,27.0,15.0,30.21,SW,228,4.0,5.0,60,0.00,,,0.00,weatherlink.com 1.10,2013-02-05 11:15:00,
2013-02-05 04:30:00,28.2,15.0,30.20,SW,220,6.0,8.0,58,0.00,,,0.00,weatherlink.com 1.10,2013-02-05 11:30:00,
2013-02-05 04:45:00,31.9,15.0,30.19,SW,220,8.0,13.0,50,0.00,,,0.00,weatherlink.com 1.10,2013-02-05 11:45:00,
2013-02-05 05:00:00,31.2,15.0,30.20,SW,216,10.0,11.0,51,0.00,,,0.00,weatherlink.com 1.10,2013-02-05 12:00:00,
2013-02-05 05:15:00,30.9,15.0,30.21,WNW,303,3.0,10.0,53,0.00,,,0.00,weatherlink.com 1.10,2013-02-05 12:15:00,
2013-02-05 05:30:00,30.1,15.0,30.21,ENE,75,0.0,4.0,53,0.00,,,0.00,weatherlink.com 1.10,2013-02-05 12:30:00,
2013-02-05 05:45:00,26.6,15.0,30.19,WSW,241,2.0,6.0,62,0.00,,,0.00,weatherlink.com 1.10,2013-02-05 12:45:00,
2013-02-05 06:00:00,29.3,15.0,30.20,SSW,196,4.0,11.0,56,0.00,,,0.00,weatherlink.com 1.10,2013-02-05 13:00:00,
2013-02-05 06:15:00,30.3,16.0,30.20,SSW,205,0.0,5.0,56,0.00,,,0.00,weatherlink.com 1.10,2013-02-05 13:15:00,
2013-02-05 06:30:00,29.3,17.0,30.20,SSW,205,3.0,4.0,61,0.00,,,0.00,weatherlink.com 1.10,2013-02-05 13:30:00,
2013-02-05 06:46:00,29.7,17.0,30.19,WSW,258,2.0,5.0,60,0.00,,,0.00,weatherlink.com 1.10,2013-02-05 13:46:00,
2013-02-05 07:01:00,29.1,16.0,30.19,WSW,258,0.0,4.0,59,0.00,,,0.00,weatherlink.com 1.10,2013-02-05 14:01:00,
2013-02-05 07:16:00,28.4,16.0,30.20,WSW,258,1.0,3.0,60,0.00,,,0.00,weatherlink.com 1.10,2013-02-05 14:16:00,
2013-02-05 07:31:00,27.2,16.0,30.20,WSW,258,1.0,3.0,63,0.00,,,0.00,weatherlink.com 1.10,2013-02-05 14:31:00,
2013-02-05 07:45:00,27.6,16.0,30.20,South,188,0.0,4.0,62,0.00,,,0.00,weatherlink.com 1.10,2013-02-05 14:45:00,
2013-02-05 08:01:00,26.9,16.0,30.21,South,188,3.0,3.0,64,0.00,,,0.00,weatherlink.com 1.10,2013-02-05 15:01:00,
2013-02-05 08:16:00,27.6,17.0,30.21,SSW,210,4.0,6.0,64,0.00,,,0.00,weatherlink.com 1.10,2013-02-05 15:16:00,
2013-02-05 08:31:00,29.1,17.0,30.21,SW,221,0.0,6.0,61,0.00,,,0.00,weatherlink.com 1.10,2013-02-05 15:31:00,
2013-02-05 08:46:00,29.4,17.0,30.21,SW,221,4.0,6.0,61,0.00,,,0.00,weatherlink.com 1.10,2013-02-05 15:46:00,
2013-02-05 09:01:00,31.3,18.0,30.20,SW,221,0.0,4.0,57,0.00,,,0.00,weatherlink.com 1.10,2013-02-05 16:01:00,
2013-02-05 09:16:00,32.5,19.0,30.19,SW,220,0.0,2.0,58,0.00,,,0.00,weatherlink.com 1.10,2013-02-05 16:16:00,
2013-02-05 09:31:00,33.7,19.0,30.20,ENE,78,2.0,4.0,56,0.00,,,0.00,weatherlink.com 1.10,2013-02-05 16:31:00,
2013-02-05 09:46:00,33.1,19.0,30.20,NE,45,0.0,5.0,57,0.00,,,0.00,weatherlink.com 1.10,2013-02-05 16:46:00,
2013-02-05 10:16:00,35.2,19.0,30.20,NE,45,0.0,1.0,52,0.00,,,0.00,weatherlink.com 1.10,2013-02-05 17:16:00,
2013-02-05 10:31:00,36.6,19.0,30.20,East,101,4.0,6.0,50,0.00,,,0.00,weatherlink.com 1.10,2013-02-05 17:31:00,
2013-02-05 10:46:00,39.2,20.0,30.20,ESE,116,0.0,3.0,46,0.00,,,0.00,weatherlink.com 1.10,2013-02-05 17:46:00,
2013-02-05 11:01:00,39.3,20.0,30.20,ESE,110,4.0,5.0,46,0.00,,,0.00,weatherlink.com 1.10,2013-02-05 18:01:00,
2013-02-05 11:31:00,40.3,21.0,30.19,ESE,109,5.0,6.0,47,0.00,,,0.00,weatherlink.com 1.10,2013-02-05 18:31:00,
2013-02-05 11:46:00,40.1,21.0,30.17,East,100,6.0,11.0,47,0.00,,,0.00,weatherlink.com 1.10,2013-02-05 18:46:00,
2013-02-05 12:01:00,39.6,22.0,30.16,East,97,9.0,10.0,50,0.00,,,0.00,weatherlink.com 1.10,2013-02-05 19:01:00,
2013-02-05 12:16:00,37.8,22.0,30.15,East,95,7.0,10.0,54,0.00,,,0.00,weatherlink.com 1.10,2013-02-05 19:16:00,
2013-02-05 12:31:00,37.9,22.0,30.15,East,86,2.0,10.0,54,0.00,,,0.00,weatherlink.com 1.10,2013-02-05 19:31:00,
2013-02-05 12:46:00,39.6,22.0,30.14,East,99,1.0,6.0,50,0.00,,,0.00,weatherlink.com 1.10,2013-02-05 19:46:00,
2013-02-05 13:04:00,41.5,23.0,30.13,ESE,110,3.0,8.0,48,0.00,,,0.00,weatherlink.com 1.10,2013-02-05 20:04:00,
2013-02-05 13:16:00,41.5,22.0,30.12,East,93,5.0,7.0,47,0.00,,,0.00,weatherlink.com 1.10,2013-02-05 20:16:00,
2013-02-05 13:31:00,42.1,23.0,30.11,East,99,5.0,7.0,46,0.00,,,0.00,weatherlink.com 1.10,2013-02-05 20:31:00,
2013-02-05 14:01:00,42.6,22.0,30.11,East,96,2.0,6.0,45,0.00,,,0.00,weatherlink.com 1.10,2013-02-05 21:01:00,
2013-02-05 14:31:00,42.9,23.0,30.10,East,96,2.0,6.0,46,0.00,,,0.00,weatherlink.com 1.10,2013-02-05 21:31:00,
2013-02-05 14:46:00,45.4,22.0,30.09,SE,127,1.0,4.0,39,0.00,,,0.00,weatherlink.com 1.10,2013-02-05 21:46:00,
2013-02-05 15:01:00,47.0,20.0,30.09,SSE,152,1.0,5.0,35,0.00,,,0.00,weatherlink.com 1.10,2013-02-05 22:01:00,
2013-02-05 15:16:00,47.0,20.0,30.09,South,170,4.0,8.0,35,0.00,,,0.00,weatherlink.com 1.10,2013-02-05 22:16:00,
2013-02-05 15:31:00,47.4,21.0,30.09,SSE,165,2.0,4.0,36,0.00,,,0.00,weatherlink.com 1.10,2013-02-05 22:31:00,
2013-02-05 15:46:00,46.1,25.0,30.09,SSE,161,1.0,7.0,43,0.00,,,0.00,weatherlink.com 1.10,2013-02-05 22:46:00,
2013-02-05 16:01:00,45.4,22.0,30.08,SSW,209,7.0,7.0,39,0.00,,,0.00,weatherlink.com 1.10,2013-02-05 23:01:00,
2013-02-05 16:16:00,44.2,21.0,30.07,SSW,193,6.0,8.0,40,0.00,,,0.00,weatherlink.com 1.10,2013-02-05 23:16:00,
2013-02-05 16:31:00,43.9,20.0,30.07,SSW,208,5.0,8.0,39,0.00,,,0.00,weatherlink.com 1.10,2013-02-05 23:31:00,
2013-02-05 16:46:00,43.3,21.0,30.07,SW,220,0.0,6.0,42,0.00,,,0.00,weatherlink.com 1.10,2013-02-05 23:46:00,
2013-02-05 17:01:00,42.2,22.0,30.07,WSW,253,2.0,6.0,44,0.00,,,0.00,weatherlink.com 1.10,2013-02-06 00:01:00,
2013-02-05 17:16:00,38.8,22.0,30.07,WSW,253,0.0,4.0,52,0.00,,,0.00,weatherlink.com 1.10,2013-02-06 00:16:00,
2013-02-05 17:31:00,37.6,21.0,30.07,WSW,253,1.0,2.0,52,0.00,,,0.00,weatherlink.com 1.10,2013-02-06 00:31:00,
2013-02-05 17:47:00,37.6,20.0,30.07,SSW,201,4.0,8.0,49,0.00,,,0.00,weatherlink.com 1.10,2013-02-06 00:47:00,
2013-02-05 18:02:00,37.6,19.0,30.07,SSE,166,4.0,9.0,48,0.00,,,0.00,weatherlink.com 1.10,2013-02-06 01:02:00,
2013-02-05 18:17:00,37.9,19.0,30.07,SW,223,10.0,14.0,46,0.00,,,0.00,weatherlink.com 1.10,2013-02-06 01:17:00,
2013-02-05 18:31:00,37.9,19.0,30.07,West,274,3.0,12.0,46,0.00,,,0.00,weatherlink.com 1.10,2013-02-06 01:31:00,
2013-02-05 18:46:00,37.8,17.0,30.07,SW,214,13.0,14.0,43,0.00,,,0.00,weatherlink.com 1.10,2013-02-06 01:46:00,
2013-02-05 19:01:00,37.5,17.0,30.07,SW,218,6.0,9.0,44,0.00,,,0.00,weatherlink.com 1.10,2013-02-06 02:01:00,
2013-02-05 19:17:00,37.9,16.0,30.08,SW,216,3.0,11.0,41,0.00,,,0.00,weatherlink.com 1.10,2013-02-06 02:17:00,
2013-02-05 19:32:00,37.0,16.0,30.07,SW,221,6.0,15.0,42,0.00,,,0.00,weatherlink.com 1.10,2013-02-06 02:32:00,
2013-02-05 19:47:00,35.6,16.0,30.08,WSW,244,1.0,9.0,45,0.00,,,0.00,weatherlink.com 1.10,2013-02-06 02:47:00,
2013-02-05 20:02:00,36.0,15.0,30.07,SW,219,6.0,10.0,42,0.00,,,0.00,weatherlink.com 1.10,2013-02-06 03:02:00,
2013-02-05 20:17:00,36.0,14.0,30.07,SSW,211,6.0,12.0,41,0.00,,,0.00,weatherlink.com 1.10,2013-02-06 03:17:00,
2013-02-05 20:32:00,34.6,15.0,30.07,WSW,253,4.0,7.0,44,0.00,,,0.00,weatherlink.com 1.10,2013-02-06 03:32:00,
2013-02-05 20:47:00,33.5,15.0,30.07,West,274,4.0,5.0,47,0.00,,,0.00,weatherlink.com 1.10,2013-02-06 03:47:00,
2013-02-05 21:02:00,33.1,15.0,30.07,SSW,204,6.0,7.0,47,0.00,,,0.00,weatherlink.com 1.10,2013-02-06 04:02:00,
2013-02-05 21:17:00,33.2,15.0,30.08,WSW,250,4.0,5.0,48,0.00,,,0.00,weatherlink.com 1.10,2013-02-06 04:17:00,
2013-02-05 21:32:00,32.7,16.0,30.08,WSW,238,4.0,5.0,51,0.00,,,0.00,weatherlink.com 1.10,2013-02-06 04:32:00,
2013-02-05 21:47:00,32.7,15.0,30.08,SSW,212,3.0,8.0,48,0.00,,,0.00,weatherlink.com 1.10,2013-02-06 04:47:00,
2013-02-05 22:02:00,31.8,15.0,30.08,West,272,3.0,9.0,50,0.00,,,0.00,weatherlink.com 1.10,2013-02-06 05:02:00,
2013-02-05 22:17:00,32.9,14.0,30.08,WSW,242,4.0,4.0,46,0.00,,,0.00,weatherlink.com 1.10,2013-02-06 05:17:00,
2013-02-05 22:32:00,31.2,15.0,30.08,WNW,286,3.0,5.0,51,0.00,,,0.00,weatherlink.com 1.10,2013-02-06 05:32:00,
2013-02-05 22:47:00,30.1,15.0,30.08,SW,218,7.0,7.0,53,0.00,,,0.00,weatherlink.com 1.10,2013-02-06 05:47:00,
2013-02-05 23:02:00,30.4,14.0,30.08,West,275,6.0,6.0,51,0.00,,,0.00,weatherlink.com 1.10,2013-02-06 06:02:00,
2013-02-05 23:17:00,29.4,14.0,30.08,SW,232,4.0,6.0,54,0.00,,,0.00,weatherlink.com 1.10,2013-02-06 06:17:00,
2013-02-05 23:47:00,29.0,14.0,30.07,West,279,5.0,6.0,54,0.00,,,0.00,weatherlink.com 1.10,2013-02-06 06:47:00,